User: anonymous   Login
Location: Kawakawa
(35.3830°S, 174.0670°E)
Time: 21:01:44
(UTC+13:00)
Language:

Cosmos 2333 Rocket - Orbit

View from above orbital plane
View from above orbital plane
View from above satellite
View from above satellite

Ground track
Ground track

The orbit data is extracted from the following two-line orbital elements,

1 24298U 96051B   19084.59671815 -.00000004  00000-0  24244-4 0  9995
2 24298  70.8245 139.1885 0018151 292.8487  67.0716 14.12392248163096
Epoch (UTC): 25 March 2019 14:19:16
Eccentricity: 0.0018151
inclination: 70.8245°
perigee height: 838 km
apogee height: 864 km
right ascension of ascending node: 139.1885°
argument of perigee: 292.8487°
revolutions per day: 14.12392248
mean anomaly at epoch: 67.0716°
orbit number at epoch: 16309

The dashed part of the orbit path shows where the satellite is in the earth's shadow,  

DLR